Weather History for Budapest Ferihegy, Hungary

Change the Weather History Date:

Sunday, January 6, 2013

  Actual Average Record
Temperature  
Mean Temperature 34 °F -  
Max Temperature 37 °F 36 °F 53 °F (2014)
Min Temperature 32 °F 22 °F 8 °F (2004)
Degree Days  
Heating Degree Days 30    
Moisture  
Dew Point 27 °F    
Average Humidity 76    
Maximum Humidity 100    
Minimum Humidity 56    
Precipitation  
Precipitation 0.00 in - - ()
Sea Level Pressure  
Sea Level Pressure 30.08 in    
Wind  
Wind Speed 8 mph ()    
Max Wind Speed 15 mph    
Max Gust Speed 25 mph    
Visibility 3.0 miles    
Events Rain , Snow    
Averages and records for this station are not official NWS values.
T = Trace of Precipitation, MM = Missing Value Source: Averaged Metar Reports

Daily Weather History Graph

Daily Weather History Graph

Search for Another Location

Airport:

Trip Planner

Search our weather history database for the weather conditions in past years. The results will help you decide how hot, cold, wet, or windy it might be!

Date:

Astronomy

Jan. 06, 2013 Rise Set
Actual Time 7:29 AM CET 4:08 PM CET
Civil Twilight 6:54 AM CET 4:43 PM CET
Nautical Twilight 6:15 AM CET 5:22 PM CET
Astronomical Twilight 5:38 AM CET 5:59 PM CET
Moon 1:12 AM CET (1/6) 11:32 AM CET (1/6)
Length of Visible Light 9h 48m
Length of Day
8h 38m
Waning Crescent, 36% of the Moon is Illuminated
Jan 6
Waning Crescent
Jan 11
New
Jan 19
First Quarter
Jan 27
Full
Feb 3
Last Quarter

Hourly Weather History & Observations

Time (CET) Temp. Windchill Dew Point Humidity Pressure Visibility Wind Dir Wind Speed Gust Speed Precip Events Conditions
12:00 AM 35.6 °F 26.2 °F 23.0 °F 60% 30.12 in - NW 15.0 mph - N/A   Clear
12:30 AM 35.6 °F 28.0 °F 23.0 °F 60% 30.12 in - WNW 10.4 mph - N/A   Clear
1:00 AM 35.6 °F 28.0 °F 24.8 °F 65% 30.12 in - NW 10.4 mph - N/A   Clear
1:30 AM 35.6 °F 28.6 °F 23.0 °F 60% 30.12 in - NW 9.2 mph - N/A   Clear
2:00 AM 35.6 °F 28.0 °F 23.0 °F 60% 30.12 in - NW 10.4 mph - N/A   Clear
2:30 AM 35.6 °F 27.5 °F 23.0 °F 60% 30.12 in - NW 11.5 mph - N/A   Clear
3:00 AM 35.6 °F 26.6 °F 23.0 °F 60% 30.12 in - NW 13.8 mph - N/A   Clear
3:30 AM 35.6 °F 27.1 °F 23.0 °F 60% 30.12 in - NW 12.7 mph - N/A   Clear
4:00 AM 35.6 °F 28.6 °F 23.0 °F 60% 30.12 in - NNW 9.2 mph - N/A   Clear
4:30 AM 35.6 °F 29.9 °F 23.0 °F 60% 30.12 in - NNW 6.9 mph - N/A   Clear
5:00 AM 35.6 °F 32.8 °F 23.0 °F 60% 30.12 in - Variable 3.5 mph - N/A   Clear
5:30 AM 33.8 °F 27.7 °F 23.0 °F 65% 30.12 in - NW 6.9 mph - N/A   Clear
6:00 AM 33.8 °F 28.6 °F 24.8 °F 70% 30.12 in - North 5.8 mph - N/A   Clear
6:30 AM 33.8 °F 27.0 °F 23.0 °F 65% 30.15 in - NNW 8.1 mph - N/A   Clear
7:00 AM 33.8 °F 26.4 °F 24.8 °F 70% 30.15 in - NW 9.2 mph - N/A   Clear
7:30 AM 33.8 °F 26.4 °F 24.8 °F 70% 30.15 in - NW 9.2 mph - N/A   Clear
8:00 AM 33.8 °F 27.0 °F 23.0 °F 65% 30.15 in - NNW 8.1 mph - N/A   Clear
8:30 AM 33.8 °F 27.0 °F 23.0 °F 65% 30.15 in - NNW 8.1 mph - N/A   Clear
9:00 AM 33.8 °F 27.0 °F 23.0 °F 65% 30.18 in - NW 8.1 mph - N/A   Clear
9:30 AM 33.8 °F 28.6 °F 24.8 °F 70% 30.15 in - NW 5.8 mph - N/A   Clear
10:00 AM 35.6 °F 30.7 °F 24.8 °F 65% 30.18 in - NW 5.8 mph - N/A   Clear
10:30 AM 35.6 °F 29.9 °F 24.8 °F 65% 30.18 in - NW 6.9 mph - N/A   Clear
11:00 AM 35.6 °F 29.2 °F 24.8 °F 65% 30.15 in - WNW 8.1 mph - N/A   Clear
11:30 AM 37.4 °F 30.8 °F 23.0 °F 56% 30.15 in - NW 9.2 mph - N/A   Clear
12:00 PM 37.4 °F 31.4 °F 23.0 °F 56% 30.12 in - WNW 8.1 mph - N/A   Clear
12:30 PM 37.4 °F 32.1 °F 24.8 °F 60% 30.12 in - West 6.9 mph - N/A   Clear
1:00 PM 37.4 °F 30.8 °F 24.8 °F 60% 30.09 in - West 9.2 mph - N/A   Clear
1:30 PM 37.4 °F 32.1 °F 23.0 °F 56% 30.09 in - West 6.9 mph - N/A   Clear
2:00 PM 37.4 °F 33.8 °F 24.8 °F 60% 30.06 in 6.2 mi WNW 4.6 mph - N/A   Mostly Cloudy
2:30 PM 37.4 °F 31.4 °F 24.8 °F 60% 30.06 in 6.2 mi WNW 8.1 mph - N/A   Mostly Cloudy
3:00 PM 35.6 °F 26.6 °F 24.8 °F 65% 30.06 in 3.7 mi WNW 13.8 mph 25.3 mph N/A Snow Light Snow
3:30 PM 33.8 °F 27.0 °F 30.2 °F 87% 30.06 in 1.9 mi NW 8.1 mph - N/A Snow Light Snow
4:00 PM 32.0 °F 24.2 °F 32.0 °F 100% 30.04 in 1.9 mi West 9.2 mph - N/A Snow Light Snow
4:30 PM 32.0 °F 24.8 °F 32.0 °F 100% 30.04 in 1.6 mi West 8.1 mph - N/A Snow Light Snow
5:00 PM 32.0 °F 26.4 °F 32.0 °F 100% 30.04 in 1.2 mi WSW 5.8 mph - N/A Snow Light Snow
5:30 PM 32.0 °F 27.5 °F 32.0 °F 100% 30.01 in 0.9 mi SW 4.6 mph - N/A Snow Light Snow
6:00 PM 32.0 °F 25.6 °F 32.0 °F 100% 30.01 in 0.9 mi WSW 6.9 mph - N/A Snow Light Snow
6:30 PM 32.0 °F 25.6 °F 32.0 °F 100% 30.01 in 0.9 mi WSW 6.9 mph - N/A Snow Snow
7:00 PM 32.0 °F 26.4 °F 32.0 °F 100% 30.01 in 1.0 mi WSW 5.8 mph - N/A Snow Light Snow
7:30 PM 32.0 °F 27.5 °F 32.0 °F 100% 30.01 in 0.7 mi WSW 4.6 mph - N/A Snow Snow
8:00 PM 32.0 °F 28.7 °F 32.0 °F 100% 29.98 in 1.1 mi Variable 3.5 mph - N/A Snow Light Snow
8:30 PM 32.0 °F 27.5 °F 32.0 °F 100% 29.98 in 1.6 mi WSW 4.6 mph - N/A Snow Light Snow
9:00 PM 32.0 °F 25.6 °F 32.0 °F 100% 29.98 in 3.7 mi WSW 6.9 mph - N/A Rain , Snow Light Rain
9:30 PM 32.0 °F 26.4 °F 32.0 °F 100% 29.98 in 5.0 mi West 5.8 mph - N/A   Overcast
10:00 PM 33.8 °F 28.6 °F 33.8 °F 100% 29.98 in 5.0 mi West 5.8 mph - N/A   Mostly Cloudy
10:30 PM 32.0 °F 26.4 °F 32.0 °F 100% 29.98 in 5.0 mi NNW 5.8 mph - N/A   Mostly Cloudy
11:00 PM 32.0 °F 28.7 °F 32.0 °F 100% 29.98 in 5.0 mi Variable 3.5 mph - N/A   Mostly Cloudy
11:30 PM 32.0 °F 28.7 °F 32.0 °F 100% 30.01 in 6.2 mi Variable 3.5 mph - N/A   Mostly Cloudy